[[{"header":{"parameterUnit":"m.s-1","parameterCategory":1,"la1":30.2991,"la2":30.254,"lo1":-89.0895,"lo2":-89.0444,"dy":0.0017,"dx":0.0017,"nx":28,"ny":28,"refTime":"2024-09-01T21:00:00:Z","depth":0,"parameterNumber":2,"parameterNumberName":"U-component_of_WINDS"},"data":[0,0,0,0,0,0,0,0,0,0,0,0,0,0,0,0,0,0,0,0,0,0,0,0,0,0,0,0,0,0,0,0,0,0,0,0,0,0,0,0,0,0,0,0,0,0,0,0,0,0,0,0,0,0,0,0,0,0,-1.2012,-1.201,0,-1.1859,-1.1857,-1.1855,-1.1785,-1.1785,-1.1785,-1.1785,-1.1628,-1.1623,-1.1619,0,0,0,0,0,0,0,0,0,0,0,0,0,-1.2245,-1.2241,-1.2012,-1.201,-1.2008,-1.1859,-1.1857,-1.1855,-1.1785,-1.1785,-1.1785,-1.1785,-1.1629,-1.1624,-1.1619,0,0,0,0,0,0,0,0,0,0,0,0,0,-1.2123,-1.2239,-1.2013,-1.1955,-1.1949,-1.186,-1.1857,-1.1854,-1.1785,-1.1785,-1.1785,-1.1785,-1.1631,-1.1624,-1.1618,-1.1574,0,0,-1.1598,-1.1596,0,0,0,0,0,0,0,0,-1.213,-1.2114,-1.1966,-1.1959,-1.1951,-1.1841,-1.1881,-1.176,-1.1785,-1.1847,-1.1785,-1.1785,-1.1698,-1.1686,-1.1657,-1.1567,-1.156,-1.1598,-1.1594,-1.1591,-1.1589,0,0,0,0,0,0,0,-1.2138,-1.2121,-1.1951,-1.1964,-1.1955,-1.1938,-1.192,-1.1858,-1.1773,-1.1841,-1.1836,-1.1819,-1.1695,-1.1664,-1.1653,-1.1558,-1.1598,-1.1592,-1.1588,-1.1586,-1.1426,-1.1426,0,0,0,0,0,0,-1.2156,-1.2128,-1.1956,-1.1947,-1.2043,-1.1933,-1.1914,-1.1876,-1.1774,-1.1758,-1.1819,-1.1816,-1.1675,-1.1661,-1.1647,-1.159,-1.1591,-1.1585,-1.1581,-1.1426,-1.1426,-1.1425,0,0,0,0,0,0,-1.2161,-1.2141,-1.1963,-1.2036,-1.2012,-1.1929,-1.1887,-1.1873,-1.1842,-1.1757,-1.1741,-1.1803,-1.1674,-1.1656,-1.1593,-1.1584,-1.1582,-1.1576,-1.1427,-1.1426,-1.1426,-1.1475,0,0,0,0,0,0,-1.2168,-1.2144,-1.2126,-1.2036,-1.2008,-1.1911,-1.1887,-1.187,-1.1831,-1.1826,-1.1738,-1.1723,-1.1673,-1.1603,-1.1587,-1.1575,-1.1571,-1.1427,-1.1427,-1.1426,-1.1474,-1.1477,-1.1479,0,0,0,0,0,-1.2177,-1.2145,-1.2125,-1.2105,-1.1984,-1.1911,-1.1895,-1.1838,-1.1831,-1.1812,-1.1758,-1.1726,-1.1588,-1.1598,-1.1578,-1.1564,-1.1428,-1.1427,-1.1426,-1.1473,-1.1476,-1.1479,0,0,0,0,0,0,-1.2235,-1.2132,-1.2109,-1.2048,-1.1989,-1.1899,-1.1874,-1.1842,-1.1784,-1.1782,-1.1714,-1.1694,-1.1638,-1.1594,-1.1607,-1.1517,-1.1505,-1.15,-1.1547,-1.1549,-1.1552,-1.1563,-1.1566,0,0,0,0,0,-1.2241,-1.219,-1.2103,-1.2057,-1.2029,-1.1957,-1.1923,-1.1884,-1.182,-1.1795,-1.1735,-1.1675,-1.1617,-1.1581,-1.1524,-1.1468,-1.1448,-1.1449,-1.1451,-1.1454,-1.145,-1.1419,-1.1418,-1.1423,-1.1423,-1.1423,0,0,-1.2252,-1.219,-1.2162,-1.2067,-1.2017,-1.1966,-1.1936,-1.1883,-1.1844,-1.1786,-1.1723,-1.1678,-1.1606,-1.1547,-1.1518,-1.1509,-1.1445,-1.1453,-1.1455,-1.145,-1.1418,-1.1418,-1.1417,-1.1422,-1.1422,-1.1422,0,0,-1.2247,-1.2194,-1.2151,-1.2102,-1.2026,-1.1979,-1.1969,-1.1884,-1.1852,-1.1788,-1.1744,-1.1698,-1.1601,-1.1552,-1.1514,-1.1493,-1.1461,-1.1476,-1.1487,-1.1458,-1.1457,-1.1457,-1.145,-1.1448,-1.1473,-1.1473,-1.1473,0,-1.227,-1.2191,-1.2133,-1.2082,-1.2043,-1.1989,-1.1945,-1.19,-1.181,-1.1784,-1.1776,-1.1654,-1.1602,-1.1531,-1.1526,-1.1497,-1.1484,-1.1485,-1.1462,-1.1461,-1.146,-1.1452,-1.145,-1.1476,-1.1475,-1.1475,-1.1475,0,-1.2224,-1.217,-1.2145,-1.206,-1.2017,-1.1971,-1.1905,-1.187,-1.1836,-1.179,-1.1727,-1.1662,-1.1591,-1.1572,-1.1538,-1.1497,-1.1494,-1.1475,-1.1461,-1.1462,-1.1454,-1.1451,-1.1479,-1.1478,-1.1477,-1.1477,0,0,-1.2249,-1.2134,-1.2126,-1.2087,-1.2001,-1.1959,-1.1911,-1.1842,-1.1813,-1.1754,-1.1712,-1.1632,-1.1615,-1.1572,-1.1532,-1.1506,-1.1495,-1.149,-1.1488,-1.1494,-1.1448,-1.1462,-1.146,-1.1475,-1.1474,-1.1473,-1.1454,0,-1.2231,-1.2142,-1.2089,-1.2022,-1.1972,-1.1922,-1.188,-1.1823,-1.1779,-1.1731,-1.1683,-1.1628,-1.1608,-1.1583,-1.1555,-1.1503,-1.1485,-1.1503,-1.1435,-1.1434,-1.1454,-1.1455,-1.147,-1.1455,-1.145,-1.145,-1.1449,0,-1.2198,-1.2141,-1.2069,-1.1991,-1.1968,-1.1931,-1.1865,-1.182,-1.1755,-1.1725,-1.1679,-1.164,-1.1588,-1.1579,-1.1507,-1.1521,-1.149,-1.1461,-1.1459,-1.1449,-1.1441,-1.1447,-1.1448,-1.1446,-1.1444,-1.1444,-1.1444,0,-1.2224,-1.2129,-1.2074,-1.2043,-1.195,-1.1925,-1.1886,-1.1821,-1.1784,-1.1727,-1.1702,-1.164,-1.1605,-1.1558,-1.1504,-1.1502,-1.1438,-1.1424,-1.1412,-1.1413,-1.1399,-1.1401,-1.1396,-1.1381,-1.1381,-1.1381,-1.1381,0,-1.221,-1.2168,-1.2085,-1.2051,-1.2003,-1.1943,-1.1897,-1.1853,-1.1797,-1.1754,-1.1707,-1.1668,-1.1598,-1.1551,-1.1508,-1.1456,-1.144,-1.1415,-1.1404,-1.1419,-1.1422,-1.1398,-1.1397,-1.138,-1.138,-1.138,-1.138,0,-1.223,-1.2173,-1.2109,-1.2027,-1.2006,-1.1974,-1.1904,-1.187,-1.1825,-1.1771,-1.1756,-1.1685,-1.1627,-1.1568,-1.1489,-1.1461,-1.141,-1.1395,-1.1431,-1.1425,-1.1416,-1.1418,-1.1395,-1.139,-1.1379,-1.1379,-1.1379,0,-1.2225,-1.2192,-1.2107,-1.2075,-1.2037,-1.1986,-1.1948,-1.1889,-1.1852,-1.1777,-1.1752,-1.1691,-1.1639,-1.1549,-1.1491,-1.1431,-1.1414,-1.141,-1.1405,-1.1421,-1.1414,-1.1417,-1.1414,-1.1412,-1.1413,-1.1413,-1.1413,0,-1.2221,-1.2195,-1.2143,-1.2081,-1.2038,-1.1987,-1.1933,-1.191,-1.1841,-1.1802,-1.1742,-1.1702,-1.1623,-1.1563,-1.1497,-1.1456,-1.1424,-1.1416,-1.141,-1.1425,-1.1448,-1.1435,-1.1437,-1.1416,-1.1416,-1.1416,-1.1416,-1.1416,-1.2228,-1.2197,-1.2133,-1.2077,-1.2031,-1.1983,-1.1947,-1.1898,-1.1848,-1.1779,-1.1747,-1.1688,-1.1626,-1.1534,-1.1495,-1.1448,-1.1439,-1.143,-1.1428,-1.1427,-1.143,-1.1456,-1.1436,-1.1436,-1.1435,-1.1435,-1.1435,0,-1.2223,-1.218,-1.2129,-1.2056,-1.2013,-1.1987,-1.1927,-1.1893,-1.1841,-1.1786,-1.1736,-1.1669,-1.1612,-1.155,-1.1489,-1.1464,-1.1447,-1.145,-1.145,-1.1442,-1.1442,-1.1453,-1.1464,-1.1464,-1.1464,-1.1464,-1.1464,-1.1464,-1.2215,-1.2161,-1.2127,-1.2051,-1.2008,-1.195,-1.1918,-1.1874,-1.183,-1.1757,-1.1709,-1.167,-1.1612,-1.1547,-1.1494,-1.1477,-1.1457,-1.1464,-1.1443,-1.1444,-1.1442,-1.144,-1.145,-1.146,-1.146,-1.1447,-1.1447,-1.1447]},{"header":{"parameterUnit":"m.s-1","parameterCategory":1,"la1":30.2991,"la2":30.254,"lo1":-89.0895,"lo2":-89.0444,"dy":0.0017,"dx":0.0017,"nx":28,"ny":28,"refTime":"2024-09-01T21:00:00:Z","depth":0,"parameterNumber":3,"parameterNumberName":"V-component_of_WINDS"},"data":[0,0,0,0,0,0,0,0,0,0,0,0,0,0,0,0,0,0,0,0,0,0,0,0,0,0,0,0,0,0,0,0,0,0,0,0,0,0,0,0,0,0,0,0,0,0,0,0,0,0,0,0,0,0,0,0,0,0,0.0794,0.0794,0,0.0794,0.0794,0.0794,0.0789,0.0789,0.0789,0.0788,0.0788,0.0788,0.0788,0,0,0,0,0,0,0,0,0,0,0,0,0,0.0787,0.0788,0.0794,0.0794,0.0794,0.0794,0.0794,0.0794,0.0789,0.0789,0.0789,0.0788,0.0787,0.0788,0.0788,0,0,0,0,0,0,0,0,0,0,0,0,0,0.0789,0.0788,0.0794,0.0792,0.0791,0.0794,0.0794,0.0794,0.0789,0.0789,0.0789,0.0788,0.0787,0.0788,0.0788,0.0793,0,0,0.0788,0.0788,0,0,0,0,0,0,0,0,0.0789,0.079,0.0792,0.0792,0.0791,0.0791,0.0792,0.0794,0.0789,0.079,0.0788,0.0788,0.0789,0.0789,0.0789,0.0793,0.0793,0.0788,0.0788,0.0788,0.0788,0,0,0,0,0,0,0,0.0789,0.0789,0.0794,0.0792,0.0792,0.079,0.079,0.0792,0.0791,0.079,0.0789,0.0789,0.0789,0.0789,0.0789,0.0793,0.0788,0.0788,0.0788,0.0789,0.0799,0.0799,0,0,0,0,0,0,0.0789,0.0789,0.0794,0.0794,0.079,0.079,0.079,0.0792,0.079,0.079,0.079,0.0789,0.0789,0.0789,0.0789,0.0794,0.0788,0.0789,0.0789,0.0799,0.0799,0.0799,0,0,0,0,0,0,0.0789,0.079,0.0794,0.0792,0.0792,0.079,0.0792,0.0792,0.0792,0.079,0.079,0.0791,0.0789,0.0789,0.0792,0.0794,0.0789,0.0789,0.0799,0.0799,0.0799,0.0805,0,0,0,0,0,0,0.0789,0.079,0.0793,0.0792,0.0792,0.0797,0.0792,0.0792,0.0793,0.0792,0.0791,0.0791,0.0789,0.0792,0.0792,0.0794,0.0789,0.0799,0.0799,0.0799,0.0805,0.0806,0.0806,0,0,0,0,0,0.0789,0.0794,0.0793,0.0793,0.0795,0.0798,0.0798,0.0796,0.0793,0.0795,0.0794,0.0791,0.0794,0.0792,0.0792,0.0795,0.0798,0.0799,0.0799,0.0804,0.0806,0.0806,0,0,0,0,0,0,0.0795,0.0794,0.0792,0.0798,0.0798,0.0797,0.0799,0.0797,0.0798,0.0797,0.0794,0.0794,0.0797,0.0796,0.0794,0.0799,0.0796,0.0796,0.0799,0.08,0.0801,0.0801,0.0789,0,0,0,0,0,0.0797,0.08,0.0798,0.0803,0.0803,0.0801,0.0802,0.08,0.08,0.08,0.0799,0.0799,0.0799,0.08,0.0801,0.0805,0.0804,0.0806,0.0807,0.0808,0.0808,0.0809,0.081,0.0801,0.0801,0.0801,0,0,0.0801,0.0801,0.0803,0.0804,0.0804,0.0806,0.0801,0.0804,0.0805,0.08,0.0803,0.0802,0.0801,0.0804,0.0806,0.0804,0.0811,0.0808,0.0809,0.0809,0.081,0.0811,0.0811,0.0801,0.0801,0.0801,0,0,0.081,0.081,0.0814,0.0813,0.0813,0.0812,0.0812,0.0811,0.0811,0.0813,0.0809,0.081,0.0812,0.0811,0.0811,0.0818,0.0815,0.0818,0.0822,0.0823,0.0824,0.0824,0.0826,0.0827,0.0818,0.0818,0.0818,0,0.0815,0.0818,0.0816,0.0818,0.0818,0.0814,0.0817,0.0817,0.0817,0.0817,0.0815,0.0816,0.0815,0.0818,0.0819,0.0819,0.0819,0.0818,0.0824,0.0825,0.0825,0.0826,0.0827,0.0819,0.0819,0.0819,0.0819,0,0.0823,0.0825,0.0828,0.0828,0.0829,0.0831,0.0829,0.0829,0.0827,0.0826,0.0827,0.0826,0.0826,0.0827,0.0825,0.0828,0.0827,0.0825,0.0821,0.0826,0.0828,0.0828,0.0819,0.0819,0.0819,0.0819,0,0,0.0836,0.0834,0.0835,0.0834,0.0833,0.0835,0.0836,0.0836,0.0837,0.0836,0.0837,0.0838,0.0836,0.0835,0.0833,0.0834,0.0838,0.0831,0.0831,0.0832,0.0841,0.0842,0.0843,0.0836,0.0836,0.0837,0.0841,0,0.0843,0.0847,0.0844,0.0848,0.0849,0.0845,0.0846,0.0845,0.0844,0.0844,0.0842,0.0842,0.0839,0.0839,0.084,0.0838,0.084,0.0837,0.0836,0.0836,0.0836,0.0844,0.0846,0.085,0.0841,0.0841,0.0842,0,0.0853,0.0853,0.0856,0.0854,0.0854,0.0856,0.0855,0.0855,0.0854,0.0852,0.0852,0.0849,0.085,0.0846,0.0847,0.0845,0.0844,0.0843,0.0843,0.0843,0.0839,0.0843,0.0851,0.0852,0.0842,0.0842,0.0842,0,0.086,0.0861,0.0863,0.0863,0.086,0.0861,0.086,0.0859,0.0858,0.0857,0.0857,0.0856,0.0856,0.0855,0.0851,0.0849,0.0852,0.0848,0.085,0.085,0.0851,0.0851,0.0858,0.0851,0.0851,0.0851,0.0851,0,0.0868,0.087,0.0866,0.0868,0.087,0.0866,0.0868,0.0867,0.0865,0.0865,0.0862,0.0862,0.0858,0.0857,0.0854,0.0855,0.0855,0.0853,0.0852,0.0853,0.0853,0.0852,0.0852,0.0851,0.0851,0.0851,0.0851,0,0.0877,0.0875,0.0876,0.0874,0.0873,0.0875,0.0872,0.0872,0.087,0.0871,0.087,0.0867,0.0866,0.0863,0.0861,0.0859,0.086,0.0859,0.0861,0.086,0.0862,0.0861,0.0869,0.0869,0.0862,0.0862,0.0862,0,0.0882,0.0884,0.0881,0.0881,0.088,0.088,0.088,0.0876,0.0876,0.0874,0.0874,0.0873,0.0872,0.0871,0.0868,0.0866,0.0865,0.0867,0.0864,0.0865,0.0864,0.0863,0.0863,0.0868,0.0868,0.0868,0.0868,0,0.0891,0.0889,0.0889,0.0888,0.0888,0.0887,0.0886,0.0886,0.0882,0.0881,0.0881,0.088,0.0878,0.0876,0.0874,0.0872,0.0869,0.0869,0.0869,0.087,0.0871,0.0869,0.0862,0.0869,0.0869,0.0869,0.0869,0.0869,0.0898,0.0898,0.0896,0.0896,0.0894,0.0893,0.0893,0.0891,0.089,0.0889,0.0887,0.0886,0.0883,0.088,0.0878,0.0877,0.0875,0.0876,0.0876,0.0876,0.0876,0.0871,0.0877,0.0877,0.0877,0.0877,0.0877,0,0.0905,0.0904,0.0904,0.0902,0.0901,0.0899,0.0897,0.0896,0.0896,0.0894,0.0892,0.0891,0.0889,0.0886,0.0884,0.0884,0.0882,0.0883,0.0883,0.0882,0.0878,0.0878,0.0884,0.0884,0.0884,0.0884,0.0884,0.0884,0.091,0.091,0.0908,0.0908,0.0906,0.0906,0.0905,0.0903,0.0902,0.09,0.0899,0.0897,0.0894,0.0891,0.089,0.0889,0.0888,0.0889,0.0888,0.0883,0.0883,0.0882,0.0882,0.0889,0.0889,0.0892,0.0892,0.0892]}]]